This is the latest recevied weather packets stored in our database for station/object YT6PT-8. If no packets are shown the sender has not sent any weather packets the latest 10 day(s).
| Time | Temp. | Humidity | Pressure | Rain* | Wind** | Luminosity | Snow |
|---|---|---|---|---|---|---|---|
| 1787914834 | 28.33° C | 44% | 1010.2 hPa | 0 mm | 0.89 m/s, 338° | - | - |
| 1787914533 | 28.33° C | 45% | 1010.4 hPa | 0 mm | 0.89 m/s, 0° | - | - |
| 1787914232 | 28.33° C | 45% | 1010.4 hPa | 0 mm | 0.89 m/s, 0° | - | - |
| 1787913932 | 28.33° C | 45% | 1010.2 hPa | 0 mm | 1.79 m/s, 338° | - | - |
| 1787913632 | 28.33° C | 45% | 1010.2 hPa | 0 mm | 1.79 m/s, 338° | - | - |
| 1787913333 | 27.78° C | 45% | 1010.2 hPa | 0 mm | 1.79 m/s, 22° | - | - |
| 1787913033 | 27.78° C | 45% | 1010.2 hPa | 0 mm | 1.79 m/s, 22° | - | - |
| 1787912732 | 27.78° C | 47% | 1010.7 hPa | 0 mm | 0 m/s | - | - |
| 1787912453 | 27.78° C | 47% | 1010.7 hPa | 0 mm | 0 m/s | - | - |
| 1787912133 | 27.78° C | 46% | 1010.6 hPa | 0 mm | 3.13 m/s, 315° | - | - |
| 1787911833 | 27.78° C | 46% | 1010.6 hPa | 0 mm | 3.13 m/s, 315° | - | - |
| 1787911533 | 27.78° C | 46% | 1010.6 hPa | 0 mm | 2.68 m/s, 0° | - | - |
| 1787911239 | 27.78° C | 46% | 1010.6 hPa | 0 mm | 2.68 m/s, 0° | - | - |
| 1787910933 | 28.33° C | 45% | 1010.5 hPa | 0 mm | 3.13 m/s, 0° | - | - |
| 1787910631 | 28.33° C | 45% | 1010.5 hPa | 0 mm | 3.13 m/s, 0° | - | - |
| 1787910332 | 28.33° C | 45% | 1010.8 hPa | 0 mm | 0.89 m/s, 90° | - | - |
| 1787910033 | 28.33° C | 45% | 1010.8 hPa | 0 mm | 0.89 m/s, 90° | - | - |
| 1787909752 | 28.33° C | 46% | 1010.8 hPa | 0 mm | 1.79 m/s, 315° | - | - |
| 1787909453 | 28.33° C | 46% | 1010.8 hPa | 0 mm | 1.79 m/s, 315° | - | - |
| 1787909133 | 27.78° C | 46% | 1010.8 hPa | 0 mm | 0.89 m/s, 90° | - | - |
| 1787908832 | 27.78° C | 46% | 1010.8 hPa | 0 mm | 0.89 m/s, 90° | - | - |
| 1787908533 | 28.33° C | 46% | 1010.6 hPa | 0 mm | 1.34 m/s, 22° | - | - |
| 1787908234 | 28.33° C | 46% | 1010.6 hPa | 0 mm | 1.34 m/s, 22° | - | - |
| 1787907933 | 27.78° C | 45% | 1010.6 hPa | 0 mm | 1.79 m/s, 338° | - | - |
| 1787907634 | 27.78° C | 45% | 1010.6 hPa | 0 mm | 1.79 m/s, 338° | - | - |
* Rain latest hour (hover to see other rain measurements)
** Current wind speed in m/s (hover to see current wind gust speed)